Location: Montamat
(43.4852°N, 0.8444°E)
Time: 11:20:03
(UTC+00:00)

Cosmos 2180 Rocket - Pass Details

Date: 14 May 2026
Orbit: 954 x 1003 km, 82.9° (Epoch: 6 June)

Event Time Altitude Azimuth Distance (km) Brightness Sun altitude
Exits shadow 23:06:36 62° 124° (SE) 1,099 4.5 -26.8°
Maximum altitude 23:07:12 65° 93° (E) 1,072 4.5 -26.8°
Drops below altitude 10° 23:13:27 10° 13° (NNE) 2,759 7.7 -27.0°
Sets 23:16:01 0° 11° (N) 3,718 8.6 -27.1°
